Location: Austin
(30.3000°N, 97.7500°W)
Time: 06:30:50
(UTC-05:00)

Cosmos 1400 Rocket - Pass Details

Date: 16 June 2025
Orbit: 484 x 518 km, 81.1° (Epoch: 08 July)

Event Time Altitude Azimuth Distance (km) Brightness Sun altitude
Rises 05:59:02 0° 332° (NNW) 2,635 6.4 -6.4°
Reaches altitude 10° 06:01:39 10° 314° (NW) 1,747 5.2 -6.0°
Maximum altitude 06:04:21 19° 269° (W) 1,296 4.2 -5.5°
Drops below altitude 10° 06:07:03 10° 224° (SW) 1,743 4.8 -5.0°
Enters shadow 06:09:21 - 207° (SSW) 2,513 5.7 -4.5°
